Time,TemperatureF,DewpointF,PressureIn,WindDirection,WindDirectionDegrees,WindSpeedMPH,WindSpeedGustMPH,Humidity,HourlyPrecipIn,Conditions,Clouds,dailyrainin,SoftwareType,DateUTC
2013-08-21 00:13:00,75.0,67.0,29.84,South,189,2.0,8.0,77,0.00,,,0.00,,2013-08-21 05:13:00,
2013-08-21 00:23:00,75.0,67.0,29.84,SSW,208,1.0,6.0,77,0.00,,,0.00,,2013-08-21 05:23:00,
2013-08-21 00:43:00,74.0,67.0,29.84,SSW,205,1.0,7.0,78,0.00,,,0.00,,2013-08-21 05:43:00,
2013-08-21 00:52:00,74.0,67.0,29.84,South,185,1.0,7.0,78,0.00,,,0.00,,2013-08-21 05:52:00,
2013-08-21 01:12:00,74.0,66.0,29.85,SSW,211,1.0,8.0,77,0.00,,,0.00,,2013-08-21 06:12:00,
2013-08-21 01:22:00,74.0,67.0,29.85,South,177,1.0,8.0,78,0.00,,,0.00,,2013-08-21 06:22:00,
2013-08-21 01:42:00,73.0,66.0,29.85,South,190,1.0,6.0,79,0.00,,,0.00,,2013-08-21 06:42:00,
2013-08-21 01:52:00,73.0,66.0,29.85,South,173,1.0,7.0,79,0.00,,,0.00,,2013-08-21 06:52:00,
2013-08-21 02:11:00,72.0,66.0,29.86,South,190,1.0,5.0,81,0.00,,,0.00,,2013-08-21 07:11:00,
2013-08-21 02:22:00,72.0,66.0,29.86,South,176,2.0,5.0,82,0.00,,,0.00,,2013-08-21 07:22:00,
2013-08-21 02:42:00,71.0,66.0,29.86,SSE,165,0.0,7.0,83,0.00,,,0.00,,2013-08-21 07:42:00,
2013-08-21 02:53:00,70.0,65.0,29.86,SE,133,0.0,5.0,85,0.00,,,0.00,,2013-08-21 07:53:00,
2013-08-21 03:12:00,70.0,66.0,29.86,South,178,1.0,7.0,86,0.00,,,0.00,,2013-08-21 08:12:00,
2013-08-21 03:22:00,70.0,66.0,29.85,SSW,196,0.0,5.0,86,0.00,,,0.00,,2013-08-21 08:22:00,
2013-08-21 03:43:00,69.0,65.0,29.85,South,186,0.0,4.0,87,0.00,,,0.00,,2013-08-21 08:43:00,
2013-08-21 03:53:00,69.0,65.0,29.85,South,184,0.0,4.0,87,0.00,,,0.00,,2013-08-21 08:53:00,
2013-08-21 04:11:00,69.0,65.0,29.85,SSW,198,0.0,5.0,88,0.00,,,0.00,,2013-08-21 09:11:00,
2013-08-21 04:22:00,69.0,65.0,29.85,South,173,1.0,6.0,88,0.00,,,0.00,,2013-08-21 09:22:00,
2013-08-21 04:43:00,69.0,66.0,29.85,South,175,2.0,6.0,89,0.00,,,0.00,,2013-08-21 09:43:00,
2013-08-21 04:54:00,68.0,65.0,29.84,WSW,249,1.0,6.0,89,0.00,,,0.00,,2013-08-21 09:54:00,
2013-08-21 05:13:00,68.0,65.0,29.84,South,178,2.0,7.0,89,0.00,,,0.00,,2013-08-21 10:13:00,
2013-08-21 05:23:00,68.0,65.0,29.84,South,180,2.0,6.0,89,0.00,,,0.00,,2013-08-21 10:23:00,
2013-08-21 05:43:00,68.0,65.0,29.84,South,178,1.0,6.0,89,0.00,,,0.00,,2013-08-21 10:43:00,
2013-08-21 05:52:00,68.0,65.0,29.84,SSE,160,1.0,8.0,89,0.00,,,0.00,,2013-08-21 10:52:00,
2013-08-21 06:12:00,68.0,65.0,29.85,South,182,0.0,5.0,89,0.00,,,0.00,,2013-08-21 11:12:00,
2013-08-21 06:22:00,68.0,65.0,29.87,SE,128,0.0,2.0,89,0.00,,,0.00,,2013-08-21 11:22:00,
2013-08-21 06:42:00,67.0,64.0,29.87,SE,128,0.0,0.0,90,0.00,,,0.00,,2013-08-21 11:42:00,
2013-08-21 06:52:00,67.0,64.0,29.87,SE,128,0.0,0.0,90,0.00,,,0.00,,2013-08-21 11:52:00,
2013-08-21 07:12:00,67.0,64.0,29.88,SE,128,0.0,0.0,90,0.00,,,0.00,,2013-08-21 12:12:00,
2013-08-21 07:22:00,67.0,64.0,29.88,SE,128,0.0,1.0,91,0.00,,,0.00,,2013-08-21 12:22:00,
2013-08-21 07:42:00,66.0,63.0,29.88,East,100,0.0,2.0,91,0.00,,,0.00,,2013-08-21 12:42:00,
2013-08-21 07:52:00,66.0,64.0,29.89,SSE,151,0.0,1.0,92,0.00,,,0.00,,2013-08-21 12:52:00,
2013-08-21 08:12:00,66.0,64.0,29.89,SSE,159,0.0,2.0,92,0.00,,,0.00,,2013-08-21 13:12:00,
2013-08-21 08:21:00,67.0,64.0,29.89,South,190,0.0,4.0,91,0.00,,,0.00,,2013-08-21 13:21:00,
2013-08-21 08:42:00,68.0,65.0,29.89,South,173,0.0,3.0,89,0.00,,,0.00,,2013-08-21 13:42:00,
2013-08-21 08:52:00,69.0,65.0,29.90,South,178,0.0,4.0,88,0.00,,,0.00,,2013-08-21 13:52:00,
2013-08-21 09:11:00,70.0,66.0,29.90,South,188,1.0,5.0,86,0.00,,,0.00,,2013-08-21 14:11:00,
2013-08-21 09:21:00,71.0,66.0,29.90,South,191,2.0,6.0,85,0.00,,,0.00,,2013-08-21 14:21:00,
2013-08-21 09:42:00,72.0,67.0,29.90,South,183,2.0,6.0,83,0.00,,,0.00,,2013-08-21 14:42:00,
2013-08-21 09:52:00,73.0,67.0,29.90,South,190,1.0,8.0,81,0.00,,,0.00,,2013-08-21 14:52:00,
2013-08-21 10:11:00,74.0,67.0,29.90,South,179,1.0,6.0,80,0.00,,,0.00,,2013-08-21 15:11:00,
2013-08-21 10:22:00,74.0,66.0,29.90,South,175,2.0,9.0,77,0.00,,,0.00,,2013-08-21 15:22:00,
2013-08-21 10:43:00,75.0,66.0,29.90,South,190,1.0,8.0,74,0.00,,,0.00,,2013-08-21 15:43:00,
2013-08-21 10:54:00,77.0,67.0,29.90,South,170,1.0,6.0,72,0.00,,,0.00,,2013-08-21 15:54:00,
2013-08-21 11:13:00,78.0,68.0,29.90,SSW,202,1.0,6.0,71,0.00,,,0.00,,2013-08-21 16:13:00,
2013-08-21 11:24:00,79.0,68.0,29.90,South,184,2.0,7.0,69,0.00,,,0.00,,2013-08-21 16:24:00,
2013-08-21 11:43:00,79.0,68.0,29.89,SSE,167,1.0,9.0,69,0.00,,,0.00,,2013-08-21 16:43:00,
2013-08-21 11:53:00,80.0,69.0,29.89,South,180,1.0,10.0,69,0.00,,,0.00,,2013-08-21 16:53:00,
2013-08-21 12:13:00,81.0,69.0,29.89,WSW,248,2.0,11.0,66,0.00,,,0.00,,2013-08-21 17:13:00,
2013-08-21 12:23:00,82.0,69.0,29.88,South,174,2.0,7.0,65,0.00,,,0.00,,2013-08-21 17:23:00,
2013-08-21 12:43:00,83.0,70.0,29.89,West,269,1.0,7.0,64,0.00,,,0.00,,2013-08-21 17:43:00,
2013-08-21 12:53:00,83.0,69.0,29.89,South,175,2.0,9.0,63,0.00,,,0.00,,2013-08-21 17:53:00,
2013-08-21 13:12:00,84.0,71.0,29.88,ESE,119,2.0,7.0,65,0.00,,,0.00,,2013-08-21 18:12:00,
2013-08-21 13:22:00,84.0,71.0,29.88,South,186,3.0,8.0,66,0.00,,,0.00,,2013-08-21 18:22:00,
2013-08-21 13:42:00,85.0,71.0,29.88,SSE,157,2.0,8.0,63,0.00,,,0.00,,2013-08-21 18:42:00,
2013-08-21 13:52:00,85.0,71.0,29.88,South,188,3.0,9.0,63,0.00,,,0.00,,2013-08-21 18:52:00,
2013-08-21 14:12:00,86.0,72.0,29.88,South,175,1.0,9.0,63,0.00,,,0.00,,2013-08-21 19:12:00,
2013-08-21 14:22:00,87.0,72.0,29.87,South,183,1.0,8.0,61,0.00,,,0.00,,2013-08-21 19:22:00,
2013-08-21 14:52:00,88.0,72.0,29.87,SW,227,2.0,8.0,59,0.00,,,0.00,,2013-08-21 19:52:00,
2013-08-21 15:11:00,88.0,71.0,29.87,South,176,3.0,10.0,58,0.00,,,0.00,,2013-08-21 20:11:00,
2013-08-21 15:22:00,88.0,72.0,29.87,SSE,163,2.0,7.0,59,0.00,,,0.00,,2013-08-21 20:22:00,
2013-08-21 15:52:00,89.0,72.0,29.86,South,183,1.0,9.0,58,0.00,,,0.00,,2013-08-21 20:52:00,
2013-08-21 16:12:00,89.0,71.0,29.85,SSW,192,2.0,10.0,56,0.00,,,0.00,,2013-08-21 21:12:00,
2013-08-21 16:21:00,90.0,72.0,29.85,SW,225,4.0,8.0,55,0.00,,,0.00,,2013-08-21 21:21:00,
2013-08-21 16:54:00,90.0,73.0,29.85,South,174,3.0,10.0,57,0.00,,,0.00,,2013-08-21 21:54:00,
2013-08-21 17:04:00,90.0,73.0,29.85,South,174,3.0,10.0,57,0.00,,,0.00,,2013-08-21 22:04:00,
2013-08-21 17:14:00,90.0,73.0,29.85,South,174,3.0,10.0,57,0.00,,,0.00,,2013-08-21 22:14:00,
2013-08-21 17:24:00,90.0,71.0,29.84,SSW,200,2.0,8.0,54,0.00,,,0.00,,2013-08-21 22:24:00,
2013-08-21 17:53:00,90.0,72.0,29.84,SSW,192,3.0,10.0,55,0.00,,,0.00,,2013-08-21 22:53:00,
2013-08-21 18:13:00,90.0,72.0,29.84,SSW,192,3.0,10.0,56,0.00,,,0.00,,2013-08-21 23:13:00,
2013-08-21 18:22:00,89.0,71.0,29.84,South,178,3.0,10.0,56,0.00,,,0.00,,2013-08-21 23:22:00,
2013-08-21 18:53:00,88.0,72.0,29.83,South,184,3.0,10.0,60,0.00,,,0.00,,2013-08-21 23:53:00,
2013-08-21 19:12:00,87.0,72.0,29.83,South,175,3.0,7.0,62,0.00,,,0.00,,2013-08-22 00:12:00,
2013-08-21 19:22:00,87.0,73.0,29.82,SSW,199,1.0,7.0,64,0.00,,,0.00,,2013-08-22 00:22:00,
2013-08-21 19:42:00,86.0,72.0,29.82,South,177,2.0,9.0,64,0.00,,,0.00,,2013-08-22 00:42:00,
2013-08-21 19:52:00,86.0,72.0,29.82,ESE,103,1.0,5.0,64,0.00,,,0.00,,2013-08-22 00:52:00,
2013-08-21 20:11:00,85.0,71.0,29.82,SSE,151,2.0,7.0,64,0.00,,,0.00,,2013-08-22 01:11:00,
2013-08-21 20:22:00,84.0,71.0,29.82,South,182,1.0,6.0,65,0.00,,,0.00,,2013-08-22 01:22:00,
2013-08-21 20:42:00,83.0,70.0,29.82,South,174,1.0,6.0,66,0.00,,,0.00,,2013-08-22 01:42:00,
2013-08-21 20:52:00,82.0,70.0,29.81,SSW,198,1.0,5.0,68,0.00,,,0.00,,2013-08-22 01:52:00,
2013-08-21 21:12:00,81.0,70.0,29.81,South,183,2.0,6.0,70,0.00,,,0.00,,2013-08-22 02:12:00,
2013-08-21 21:22:00,80.0,69.0,29.82,South,184,2.0,7.0,70,0.00,,,0.00,,2013-08-22 02:22:00,
2013-08-21 22:12:00,79.0,70.0,29.84,South,190,2.0,7.0,73,0.00,,,0.00,,2013-08-22 03:12:00,
2013-08-21 22:22:00,79.0,69.0,29.84,South,180,0.0,6.0,72,0.00,,,0.00,,2013-08-22 03:22:00,
2013-08-21 22:45:00,78.0,68.0,29.83,SW,226,1.0,7.0,72,0.00,,,0.00,,2013-08-22 03:45:00,
2013-08-21 22:54:00,78.0,69.0,29.83,SW,227,2.0,7.0,73,0.00,,,0.00,,2013-08-22 03:54:00,
2013-08-21 23:14:00,77.0,68.0,29.82,SSE,159,2.0,10.0,74,0.00,,,0.00,,2013-08-22 04:14:00,
2013-08-21 23:23:00,77.0,68.0,29.82,South,178,2.0,7.0,73,0.00,,,0.00,,2013-08-22 04:23:00,
2013-08-21 23:44:00,77.0,67.0,29.82,South,183,1.0,9.0,72,0.00,,,0.00,,2013-08-22 04:44:00,
2013-08-21 23:54:00,77.0,67.0,29.83,WSW,238,3.0,7.0,72,0.00,,,0.00,,2013-08-22 04:54:00,